• In Hungary
  • List of Countries
  • For 7 days
  • Water Temperature
  • Satellite Maps
  • Weather Map
  • News
  • Weather Widgets
  • user-avatar
    Login

    Hourly Weather Burgos

    Today, 20 September, Thursday

    Time Temperature Precipitation Wind Pressure Humidity
    00:00 +19°C° 0 mm 1 mps 688 mmHg 75%
    01:00 +19°C° 0 mm 1 mps 687 mmHg 76%
    02:00 +18°C° 0 mm 1 mps 687 mmHg 77%
    03:00 +18°C° 0 mm 1 mps 687 mmHg 77%
    04:00 +18°C° 0 mm 1 mps 687 mmHg 76%
    05:00 +18°C° 0 mm 1 mps 687 mmHg 75%
    06:00 +16°C° 0 mm 1 mps 687 mmHg 73%
    07:00 +19°C° 0 mm 2 mps 687 mmHg 64%
    08:00 +21°C° 0 mm 2 mps 688 mmHg 54%
    09:00 +24°C° 0 mm 2 mps 688 mmHg 44%
    10:00 +26°C° 0 mm 3 mps 688 mmHg 38%
    11:00 +28°C° 0 mm 3 mps 688 mmHg 33%
    12:00 +29°C° 0 mm 4 mps 688 mmHg 27%
    13:00 +30°C° 0 mm 4 mps 688 mmHg 26%
    14:00 +30°C° 0 mm 4 mps 687 mmHg 25%
    15:00 +30°C° 0 mm 4 mps 687 mmHg 23%
    16:00 +28°C° 0 mm 3 mps 687 mmHg 27%
    17:00 +27°C° 0 mm 3 mps 686 mmHg 30%
    18:00 +25°C° 0 mm 2 mps 686 mmHg 33%
    19:00 +24°C° 0 mm 1 mps 686 mmHg 37%
    20:00 +22°C° 0 mm 1 mps 686 mmHg 40%
    21:00 +21°C° 0 mm 1 mps 686 mmHg 44%
    22:00 +20°C° 0 mm 1 mps 686 mmHg 47%
    23:00 +20°C° 0 mm 1 mps 686 mmHg 51%

    Tomorrow, 21 September, Friday

    Time Temperature Precipitation Wind Pressure Humidity
    00:00 +19°C° 0 mm 1 mps 686 mmHg 54%
    01:00 +19°C° 0 mm 1 mps 686 mmHg 54%
    02:00 +18°C° 0 mm 1 mps 686 mmHg 54%
    03:00 +18°C° 0 mm 1 mps 686 mmHg 54%
    04:00 +15°C° 0 mm 0 mps 686 mmHg 55%
    05:00 +15°C° 0 mm 0 mps 686 mmHg 56%
    06:00 +14°C° 0 mm 0 mps 686 mmHg 57%
    07:00 +18°C° 0 mm 1 mps 687 mmHg 53%
    08:00 +20°C° 0 mm 1 mps 687 mmHg 49%
    09:00 +22°C° 0 mm 1 mps 688 mmHg 44%
    10:00 +24°C° 0 mm 1 mps 688 mmHg 39%
    11:00 +25°C° 0 mm 1 mps 689 mmHg 35%
    12:00 +27°C° 0 mm 1 mps 689 mmHg 30%
    13:00 +27°C° 0 mm 2 mps 689 mmHg 28%
    14:00 +28°C° 0 mm 2 mps 689 mmHg 27%
    15:00 +28°C° 0 mm 2 mps 688 mmHg 25%
    16:00 +26°C° 0 mm 2 mps 688 mmHg 31%
    17:00 +25°C° 0 mm 2 mps 688 mmHg 38%
    18:00 +23°C° 0 mm 2 mps 688 mmHg 44%
    19:00 +20°C° 0 mm 2 mps 688 mmHg 54%
    20:00 +19°C° 0 mm 2 mps 688 mmHg 64%
    21:00 +17°C° 0 mm 2 mps 688 mmHg 74%
    22:00 +17°C° 0 mm 2 mps 688 mmHg 77%
    23:00 +16°C° 0 mm 2 mps 688 mmHg 80%

    Day after tomorrow, 22 September, Saturday

    Time Temperature Precipitation Wind Pressure Humidity
    00:00 +16°C° 0 mm 2 mps 688 mmHg 83%
    01:00 +15°C° 0 mm 2 mps 688 mmHg 83%
    02:00 +15°C° 0 mm 1 mps 688 mmHg 82%
    03:00 +15°C° 0 mm 1 mps 688 mmHg 82%
    04:00 +15°C° 0 mm 1 mps 688 mmHg 82%
    05:00 +15°C° 0 mm 1 mps 688 mmHg 81%
    06:00 +15°C° 0 mm 1 mps 688 mmHg 81%
    07:00 +18°C° 0 mm 1 mps 689 mmHg 70%
    08:00 +21°C° 0 mm 1 mps 689 mmHg 59%
    09:00 +24°C° 0 mm 1 mps 690 mmHg 48%
    10:00 +25°C° 0 mm 2 mps 690 mmHg 40%
    11:00 +27°C° 0 mm 2 mps 691 mmHg 33%
    12:00 +29°C° 0 mm 3 mps 691 mmHg 25%
    13:00 +30°C° 0 mm 3 mps 691 mmHg 24%
    14:00 +30°C° 0 mm 3 mps 690 mmHg 22%
    15:00 +30°C° 0 mm 3 mps 690 mmHg 21%
    16:00 +29°C° 0 mm 3 mps 690 mmHg 25%
    17:00 +27°C° 0 mm 2 mps 690 mmHg 30%
    18:00 +25°C° 0 mm 1 mps 689 mmHg 34%
    19:00 +24°C° 0 mm 1 mps 689 mmHg 39%
    20:00 +22°C° 0 mm 1 mps 690 mmHg 43%
    21:00 +21°C° 0 mm 1 mps 690 mmHg 48%
    22:00 +20°C° 0 mm 1 mps 689 mmHg 51%
    23:00 +20°C° 0 mm 1 mps 689 mmHg 54%

    23 September, Sunday

    Time Temperature Precipitation Wind Pressure Humidity
    00:00 +19°C° 0 mm 1 mps 689 mmHg 56%
    01:00 +19°C° 0 mm 1 mps 689 mmHg 55%
    02:00 +19°C° 0 mm 1 mps 688 mmHg 54%
    03:00 +18°C° 0 mm 1 mps 688 mmHg 53%
    04:00 +18°C° 0 mm 1 mps 688 mmHg 52%
    05:00 +18°C° 0 mm 1 mps 688 mmHg 50%
    06:00 +18°C° 0 mm 1 mps 688 mmHg 48%
    07:00 +20°C° 0 mm 2 mps 688 mmHg 42%
    08:00 +23°C° 0 mm 2 mps 689 mmHg 37%
    09:00 +25°C° 0 mm 3 mps 690 mmHg 32%
    10:00 +27°C° 0 mm 3 mps 690 mmHg 29%
    11:00 +29°C° 0 mm 4 mps 690 mmHg 26%
    12:00 +30°C° 0 mm 5 mps 691 mmHg 23%
    13:00 +30°C° 0 mm 5 mps 691 mmHg 24%
    14:00 +30°C° 0 mm 4 mps 690 mmHg 24%
    15:00 +30°C° 0 mm 4 mps 690 mmHg 25%
    16:00 +28°C° 0 mm 4 mps 690 mmHg 36%
    17:00 +25°C° 0 mm 4 mps 690 mmHg 48%
    18:00 +22°C° 0 mm 4 mps 690 mmHg 59%
    19:00 +20°C° 0 mm 4 mps 690 mmHg 67%
    20:00 +19°C° 0 mm 5 mps 690 mmHg 74%
    21:00 +17°C° 0 mm 5 mps 691 mmHg 81%
    22:00 +16°C° 0 mm 5 mps 691 mmHg 82%
    23:00 +15°C° 0 mm 5 mps 691 mmHg 84%

    24 September, Monday

    Time Temperature Precipitation Wind Pressure Humidity
    00:00 +15°C° 0 mm 5 mps 691 mmHg 85%
    01:00 +14°C° 0 mm 5 mps 691 mmHg 84%
    02:00 +14°C° 0 mm 5 mps 691 mmHg 84%
    03:00 +13°C° 0 mm 5 mps 691 mmHg 84%
    04:00 +13°C° 0 mm 5 mps 691 mmHg 84%
    05:00 +12°C° 0 mm 5 mps 691 mmHg 84%
    06:00 +12°C° 0 mm 5 mps 691 mmHg 85%
    07:00 +13°C° 0 mm 5 mps 691 mmHg 79%
    08:00 +14°C° 0 mm 5 mps 691 mmHg 73%
    09:00 +14°C° 0 mm 5 mps 691 mmHg 68%
    10:00 +16°C° 0 mm 5 mps 692 mmHg 62%
    11:00 +17°C° 0 mm 5 mps 692 mmHg 56%
    12:00 +19°C° 0 mm 6 mps 692 mmHg 50%
    13:00 +19°C° 0 mm 6 mps 691 mmHg 49%
    14:00 +19°C° 0 mm 6 mps 691 mmHg 47%
    15:00 +18°C° 0 mm 7 mps 690 mmHg 46%
    16:00 +16°C° 0 mm 6 mps 690 mmHg 51%
    17:00 +14°C° 0 mm 6 mps 690 mmHg 55%
    18:00 +11°C° 0 mm 6 mps 690 mmHg 60%
    19:00 +10°C° 0 mm 5 mps 690 mmHg 65%
    20:00 +9°C° 0 mm 5 mps 690 mmHg 70%
    21:00 +8°C° 0 mm 5 mps 690 mmHg 75%
    22:00 +7°C° 0 mm 5 mps 690 mmHg 76%
    23:00 +7°C° 0 mm 4 mps 690 mmHg 76%

    25 September, Tuesday

    Time Temperature Precipitation Wind Pressure Humidity
    00:00 +7°C° 0 mm 4 mps 689 mmHg 77%
    01:00 +7°C° 0 mm 4 mps 689 mmHg 75%
    02:00 +8°C° 0 mm 3 mps 689 mmHg 74%
    03:00 +7°C° 0 mm 3 mps 689 mmHg 73%
    04:00 +7°C° 0 mm 3 mps 689 mmHg 72%
    05:00 +7°C° 0 mm 3 mps 689 mmHg 71%
    06:00 +7°C° 0 mm 3 mps 689 mmHg 69%
    07:00 +10°C° 0 mm 3 mps 689 mmHg 60%
    08:00 +12°C° 0 mm 3 mps 689 mmHg 50%
    09:00 +16°C° 0 mm 3 mps 690 mmHg 41%
    10:00 +18°C° 0 mm 3 mps 690 mmHg 37%
    11:00 +21°C° 0 mm 2 mps 690 mmHg 34%
    12:00 +24°C° 0 mm 2 mps 690 mmHg 30%
    13:00 +25°C° 0 mm 2 mps 690 mmHg 30%
    14:00 +26°C° 0 mm 2 mps 689 mmHg 29%
    15:00 +27°C° 0 mm 2 mps 689 mmHg 29%
    16:00 +25°C° 0 mm 2 mps 689 mmHg 33%
    17:00 +23°C° 0 mm 2 mps 688 mmHg 38%
    18:00 +20°C° 0 mm 2 mps 688 mmHg 43%
    19:00 +19°C° 0 mm 2 mps 688 mmHg 45%
    20:00 +18°C° 0 mm 2 mps 688 mmHg 47%
    21:00 +17°C° 0 mm 2 mps 688 mmHg 49%
    22:00 +17°C° 0 mm 2 mps 688 mmHg 51%
    23:00 +16°C° 0 mm 2 mps 688 mmHg 53%
    Show more